Home > Weather > Telfs > Past weeks

Flag for Austria Past Weather in Telfs, Tyrol, Austria — Yesterday and Last 2 Weeks

Now
54 °F

Passing clouds.


Feels Like: 52 °F
Forecast: 50 / 65 °F
Wind: 6 mph from West

Location: Innsbruck-Flughafen

Current Time: Jun 1, 2016 at 2:00:12 AM

Latest Report: Jun 1, 2016 at 1:20 AM


Visibility: N/A

Pressure: 29.95 "Hg (27.77 "Hg at 630m altitude)

Humidity: 94%

Dew Point: 52 °F

Location of TelfsLocation

Past Weather in Telfs — Graph

°F

Telfs Temperature Yesterday

Maximum temperature yesterday: 68 °F (at 4:20 PM)
Minimum temperature yesterday: 52 °F (at 3:20 AM)
Average temperature yesterday: 58 °F

High & Low Weather Summary for the Past Weeks

 TemperatureHumidityPressure
High84 °F (May 27, 3:20 PM)100% (May 29, 4:20 AM)30.21 "Hg (May 29, 4:20 AM)
Low39 °F (May 18, 5:50 AM)23% (May 18, 3:50 PM)29.62 "Hg (May 29, 3:50 PM)
Average58 °F72%29.94 "Hg
* Reported May 17 12:20 AM — Jun 1 12:50 AM, Telfs, Weather by CustomWeather, © 2016

Note: Actual official high and low records may vary slightly from our data, if they occured in-between our weather recording intervals... More about our weather records

Advertising

Telfs Weather History for the Previous 24 Hours

Scroll right to see more
 ConditionsComfort  
Time TempWeatherWind HumidityBarometerVisibility
12:50 AM
Wed, Jun 1
54 °FLight rain. Partly cloudy.2 mph94%29.95 "HgN/A
12:20 AM54 °FPartly cloudy.2 mph94%29.98 "HgN/A
11:50 PM
Tue, May 31
54 °FLight rain. Passing clouds.3 mph94%29.98 "HgN/A
11:20 PM55 °FRain. Passing clouds.6 mph88%29.98 "HgN/A
10:50 PM55 °FRain. Partly cloudy.6 mph94%29.98 "HgN/A
10:20 PM55 °FLight rain. Partly cloudy.10 mph94%29.95 "HgN/A
9:50 PM55 °FSprinkles. Broken clouds.7 mph94%29.95 "HgN/A
9:20 PM55 °FSprinkles. Broken clouds.7 mph94%29.95 "HgN/A
8:50 PM57 °FRain. Broken clouds.8 mph88%29.92 "HgN/A
8:20 PM57 °FSprinkles. Broken clouds.7 mph94%29.92 "HgN/A
7:50 PM57 °FSprinkles. Broken clouds.8 mph88%29.92 "HgN/A
7:20 PM59 °FSprinkles. Broken clouds.6 mph82%29.92 "HgN/A
6:50 PM61 °FSprinkles. Broken clouds.9 mph72%29.89 "HgN/A
6:20 PM63 °FBroken clouds.6 mph59%29.86 "HgN/A
5:50 PM64 °FBroken clouds.10 mph60%29.86 "HgN/A
5:20 PM64 °FPartly sunny.13 mph56%29.86 "HgN/A
4:50 PM68 °FBroken clouds.13 mph53%29.86 "HgN/A
4:20 PM68 °FBroken clouds.10 mph53%29.86 "HgN/A
3:50 PM66 °FBroken clouds.8 mph56%29.86 "HgN/A
3:20 PM66 °FBroken clouds.6 mph60%29.86 "HgN/A
2:50 PM66 °FBroken clouds.7 mph56%29.86 "HgN/A
2:20 PM64 °FBroken clouds.7 mph64%29.89 "HgN/A
1:50 PM64 °FBroken clouds.7 mph60%29.89 "HgN/A
1:20 PM64 °FBroken clouds.10 mph64%29.89 "HgN/A
12:50 PM63 °FBroken clouds.7 mph68%29.89 "HgN/A
12:20 PM61 °FBroken clouds.6 mph72%29.89 "HgN/A
11:50 AM61 °FBroken clouds.7 mph72%29.89 "HgN/A
11:20 AM59 °FBroken clouds.6 mph77%29.89 "HgN/A
10:50 AM59 °FBroken clouds.5 mph77%29.89 "HgN/A
10:20 AM57 °FBroken clouds.3 mph82%29.89 "HgN/A
9:50 AM57 °FBroken clouds.2 mph82%29.89 "HgN/A
9:20 AM55 °FBroken clouds.1 mph88%29.89 "HgN/A
8:50 AM55 °FBroken clouds.2 mph88%29.92 "HgN/A
8:20 AM54 °FBroken clouds.3 mph94%29.89 "HgN/A
7:50 AM54 °FBroken clouds.2 mph94%29.89 "Hg6 mi
7:20 AM54 °FBroken clouds.2 mph94%29.89 "Hg6 mi
6:50 AM52 °FBroken clouds.2 mph100%29.89 "Hg6 mi
6:20 AM52 °FPartly cloudy.2 mph94%29.89 "Hg6 mi
5:50 AM52 °FPartly cloudy.6 mph94%29.89 "Hg5 mi
5:20 AM52 °FPartly cloudy.1 mph94%29.89 "HgN/A
4:50 AM52 °FPartly cloudy.2 mph100%29.89 "HgN/A
4:20 AM52 °FPassing clouds.5 mph100%29.89 "HgN/A
3:50 AM54 °FPassing clouds.2 mph94%29.89 "HgN/A
3:20 AM52 °FLight rain. Passing clouds.3 mph100%29.89 "HgN/A
2:50 AM54 °FLight rain. Passing clouds.1 mph94%29.89 "HgN/A
2:20 AM54 °FLight rain. Passing clouds.3 mph94%29.89 "HgN/A
Weather by CustomWeather, © 2016

See weather overviewHow to use our weather pages